EW9202 Weather Reports


time (UTC)temp
F
wind
direction
speed
knots
gust
knots
rain 1hr
in
rain 24hr
in
rain mn
in
humidity
%
barometer
mb
20260502214543 56 77 0.0 1.7 0.00 0.00 0.00 53 1016.9
20260502213030 57 63 0.0 0.0 0.00 0.00 0.00 52 1016.9
20260502211608 58 63 0.0 0.0 0.00 0.00 0.00 50 1016.8
20260502210032 59 63 0.0 0.0 0.00 0.00 0.00 48 1016.9
20260502204618 60 65 0.0 0.0 0.00 0.00 0.00 47 1016.9
20260502203028 61 66 0.0 0.0 0.00 0.00 0.00 44 1016.9
20260502201547 62 67 0.0 0.0 0.00 0.00 0.00 43 1017.0
20260502200034 63 67 0.0 0.9 0.00 0.00 0.00 41 1017.1
20260502194547 65 67 0.0 0.0 0.00 0.00 0.00 39 1017.1
20260502193056 66 65 0.0 1.7 0.00 0.00 0.00 37 1017.1
20260502191515 67 65 0.0 0.0 0.00 0.00 0.00 36 1016.9
20260502190015 69 62 0.9 3.5 0.00 0.00 0.00 35 1016.9
20260502184556 69 63 0.9 2.6 0.00 0.00 0.00 34 1017.0
20260502183102 70 74 0.9 4.3 0.00 0.00 0.00 33 1017.0
20260502181506 72 63 0.0 3.5 0.00 0.00 0.00 32 1016.9
20260502180121 73 77 0.9 5.2 0.00 0.00 0.00 30 1016.9
20260502170110 75 130 0.0 7.0 0.00 0.00 0.00 25 1017.2
20260502163051 76 124 0.9 7.8 0.00 0.00 0.00 26 1017.4
20260502161542 76 67 0.9 7.0 0.00 0.00 0.00 25 1017.7
20260502151554 76 59 0.0 6.1 0.00 0.00 0.00 22 1018.3
20260502123054 74 142 1.7 6.1 0.00 0.00 0.00 25 1020.6
20260502121555 74 110 0.0 7.0 0.00 0.00 0.00 25 1020.8
20260502114526 74 231 0.0 6.1 0.00 0.00 0.00 28 1021.3
20260502113039 73 180 0.9 5.2 0.00 0.00 0.00 28 1021.5
20260502111608 73 152 0.9 6.1 0.00 0.00 0.00 27 1021.6
20260502110003 73 98 1.7 7.8 0.00 0.00 0.00 30 1021.9
20260502104502 72 23 2.6 7.0 0.00 0.00 0.00 30 1022.0
20260502103111 72 340 0.9 3.5 0.00 0.00 0.00 32 1022.2
20260502101610 71 276 2.6 7.0 0.00 0.00 0.00 36 1022.5
20260502100109 71 239 0.0 5.2 0.00 0.00 0.00 37 1022.7
20260502070047 57 182 0.0 3.5 0.00 0.00 0.00 60 1024.3
20260502064537 54 175 0.9 5.2 0.00 0.00 0.00 66 1024.5
20260502063003 51 211 1.7 4.3 0.00 0.00 0.00 70 1024.6
20260502061513 48 236 0.9 3.5 0.00 0.00 0.00 77 1024.5
20260502060020 46 206 2.6 6.1 0.00 0.00 0.00 80 1024.6
20260502054542 45 209 0.9 5.2 0.00 0.00 0.00 81 1024.6
20260502053109 44 217 0.0 3.5 0.00 0.00 0.00 83 1024.6
20260502051537 44 230 0.9 3.5 0.00 0.00 0.00 84 1024.6
20260502050053 43 209 0.0 1.7 0.00 0.00 0.00 84 1024.5
20260502044541 43 198 0.0 2.6 0.00 0.00 0.00 84 1024.4
20260502043005 43 196 0.0 2.6 0.00 0.00 0.00 84 1024.3
20260502041608 43 188 0.0 3.5 0.00 0.00 0.00 84 1024.4
20260502040017 43 189 0.0 3.5 0.00 0.00 0.00 83 1024.4
20260502034542 43 179 0.0 1.7 0.00 0.00 0.00 83 1024.4
20260502033008 44 235 0.0 3.5 0.00 0.00 0.00 82 1024.5
20260502031518 44 201 0.0 5.2 0.00 0.00 0.00 82 1024.4
20260502030009 44 213 0.9 3.5 0.00 0.00 0.00 82 1024.5
20260502024553 44 173 0.9 3.5 0.00 0.00 0.00 82 1024.5
20260502023033 45 217 0.0 2.6 0.00 0.00 0.00 81 1024.5
20260502021600 45 220 0.0 1.7 0.00 0.00 0.00 80 1024.5
20260502020044 45 220 0.0 0.9 0.00 0.00 0.00 79 1024.5
20260502014502 46 220 0.0 4.3 0.00 0.00 0.00 79 1024.6
20260502013048 46 237 0.0 0.0 0.00 0.00 0.00 78 1024.7
20260502011544 46 237 0.0 0.0 0.00 0.00 0.00 77 1024.8
20260502004503 47 237 0.0 2.6 0.00 0.00 0.00 76 1024.9
20260502003054 48 232 0.0 3.5 0.00 0.00 0.00 75 1025.0
20260502001548 48 232 0.0 2.6 0.00 0.00 0.00 74 1025.0
20260502000014 49 232 1.7 4.3 0.00 0.00 0.00 74 1025.0
20260501234532 49 219 0.0 2.6 0.00 0.00 0.00 72 1025.1
20260501233105 50 219 0.0 2.6 0.00 0.00 0.00 71 1025.2
20260501231510 50 221 0.0 3.5 0.00 0.00 0.00 70 1025.1
20260501230110 50 223 0.0 1.7 0.00 0.00 0.00 69 1025.2
20260501224538 51 270 0.0 0.0 0.00 0.00 0.00 68 1025.2
20260501223024 52 269 0.0 0.0 0.00 0.00 0.00 68 1025.3
20260501221538 52 269 0.0 2.6 0.00 0.00 0.00 67 1025.3
20260501220028 53 269 0.0 2.6 0.00 0.00 0.00 66 1025.3